Time,TemperatureF,DewpointF,PressureIn,WindDirection,WindDirectionDegrees,WindSpeedMPH,WindSpeedGustMPH,Humidity,HourlyPrecipIn,Conditions,Clouds,dailyrainin,SoftwareType,DateUTC
2013-03-14 00:04:00,54.0,0.0,30.15,North,349,0.0,0.0,33,-99.99,,,-99.99,,2013-03-14 07:04:00,
2013-03-14 00:12:00,55.0,0.0,30.15,NNE,26,1.0,1.0,30,-99.99,,,-99.99,,2013-03-14 07:12:00,
2013-03-14 00:20:00,49.0,0.0,30.15,NE,49,3.0,3.0,36,-99.99,,,-99.99,,2013-03-14 07:20:00,
2013-03-14 00:28:00,52.0,0.0,30.15,ENE,72,5.0,5.0,34,-99.99,,,-99.99,,2013-03-14 07:28:00,
2013-03-14 00:36:00,52.0,0.0,30.15,East,99,5.0,5.0,35,-99.99,,,-99.99,,2013-03-14 07:36:00,
2013-03-14 00:44:00,52.0,0.0,30.15,East,97,2.0,2.0,36,-99.99,,,-99.99,,2013-03-14 07:44:00,
2013-03-14 00:52:00,48.0,0.0,30.15,WSW,248,5.0,5.0,38,-99.99,,,-99.99,,2013-03-14 07:52:00,
2013-03-14 01:00:00,48.0,0.0,30.15,SW,226,5.0,5.0,39,-99.99,,,-99.99,,2013-03-14 08:00:00,
2013-03-14 01:08:00,48.0,0.0,30.15,WSW,242,2.0,3.0,39,-99.99,,,-99.99,,2013-03-14 08:08:00,
2013-03-14 01:16:00,47.0,0.0,30.14,SSW,206,2.0,2.0,40,-99.99,,,-99.99,,2013-03-14 08:16:00,
2013-03-14 01:24:00,46.0,0.0,30.14,South,189,5.0,5.0,42,-99.99,,,-99.99,,2013-03-14 08:24:00,
2013-03-14 01:32:00,47.0,0.0,30.14,SSW,193,6.0,6.0,40,-99.99,,,-99.99,,2013-03-14 08:32:00,
2013-03-14 01:40:00,47.0,0.0,30.14,SW,216,6.0,6.0,41,-99.99,,,-99.99,,2013-03-14 08:40:00,
2013-03-14 01:48:00,46.0,0.0,30.14,West,271,3.0,3.0,42,-99.99,,,-99.99,,2013-03-14 08:48:00,
2013-03-14 01:56:00,44.0,0.0,30.14,WNW,301,6.0,6.0,46,-99.99,,,-99.99,,2013-03-14 08:56:00,
2013-03-14 02:04:00,43.0,0.0,30.15,North,359,5.0,5.0,46,-99.99,,,-99.99,,2013-03-14 09:04:00,
2013-03-14 02:12:00,44.0,0.0,30.15,North,7,5.0,6.0,44,-99.99,,,-99.99,,2013-03-14 09:12:00,
2013-03-14 02:20:00,44.0,0.0,30.14,NE,46,3.0,5.0,44,-99.99,,,-99.99,,2013-03-14 09:20:00,
2013-03-14 02:28:00,43.0,0.0,30.15,East,79,5.0,5.0,44,-99.99,,,-99.99,,2013-03-14 09:28:00,
2013-03-14 02:36:00,44.0,0.0,30.15,East,82,7.0,7.0,46,-99.99,,,-99.99,,2013-03-14 09:36:00,
2013-03-14 02:44:00,44.0,0.0,30.15,ENE,60,3.0,3.0,43,-99.99,,,-99.99,,2013-03-14 09:44:00,
2013-03-14 02:52:00,45.0,0.0,30.15,SE,136,1.0,1.0,41,-99.99,,,-99.99,,2013-03-14 09:52:00,
2013-03-14 03:00:00,45.0,0.0,30.14,SSE,162,3.0,3.0,41,-99.99,,,-99.99,,2013-03-14 10:00:00,
2013-03-14 03:08:00,45.0,0.0,30.15,South,169,6.0,6.0,43,-99.99,,,-99.99,,2013-03-14 10:08:00,
2013-03-14 03:16:00,44.0,0.0,30.14,South,188,5.0,5.0,43,-99.99,,,-99.99,,2013-03-14 10:16:00,
2013-03-14 03:24:00,44.0,0.0,30.14,South,179,5.0,5.0,45,-99.99,,,-99.99,,2013-03-14 10:24:00,
2013-03-14 03:32:00,46.0,0.0,30.14,SSE,163,6.0,6.0,43,-99.99,,,-99.99,,2013-03-14 10:32:00,
2013-03-14 03:40:00,46.0,0.0,30.14,South,187,5.0,5.0,45,-99.99,,,-99.99,,2013-03-14 10:40:00,
2013-03-14 03:48:00,42.0,0.0,30.14,WSW,238,3.0,3.0,49,-99.99,,,-99.99,,2013-03-14 10:48:00,
2013-03-14 03:56:00,46.0,0.0,30.14,WSW,256,3.0,3.0,40,-99.99,,,-99.99,,2013-03-14 10:56:00,
2013-03-14 04:04:00,47.0,0.0,30.14,SW,222,3.0,3.0,39,-99.99,,,-99.99,,2013-03-14 11:04:00,
2013-03-14 04:12:00,46.0,0.0,30.14,SW,235,1.0,1.0,38,-99.99,,,-99.99,,2013-03-14 11:12:00,
2013-03-14 04:20:00,46.0,0.0,30.14,WSW,241,1.0,1.0,38,-99.99,,,-99.99,,2013-03-14 11:20:00,
2013-03-14 04:28:00,41.0,0.0,30.14,North,352,5.0,5.0,48,-99.99,,,-99.99,,2013-03-14 11:28:00,
2013-03-14 04:40:00,40.0,0.0,30.14,North,360,3.0,3.0,49,-99.99,,,-99.99,,2013-03-14 11:40:00,
2013-03-14 04:48:00,40.0,0.0,30.14,North,361,2.0,2.0,49,-99.99,,,-99.99,,2013-03-14 11:48:00,
2013-03-14 04:56:00,40.0,0.0,30.14,North,5,3.0,3.0,46,-99.99,,,-99.99,,2013-03-14 11:56:00,
2013-03-14 05:04:00,40.0,0.0,30.15,North,355,2.0,2.0,46,-99.99,,,-99.99,,2013-03-14 12:04:00,
2013-03-14 05:12:00,40.0,0.0,30.15,North,351,2.0,2.0,46,-99.99,,,-99.99,,2013-03-14 12:12:00,
2013-03-14 05:20:00,40.0,0.0,30.15,North,361,2.0,2.0,45,-99.99,,,-99.99,,2013-03-14 12:20:00,
2013-03-14 05:28:00,40.0,0.0,30.15,NNE,31,3.0,3.0,45,-99.99,,,-99.99,,2013-03-14 12:28:00,
2013-03-14 05:36:00,40.0,0.0,30.15,NE,35,5.0,5.0,47,-99.99,,,-99.99,,2013-03-14 12:36:00,
2013-03-14 05:44:00,41.0,0.0,30.15,NE,41,3.0,3.0,44,-99.99,,,-99.99,,2013-03-14 12:44:00,
2013-03-14 05:52:00,42.0,0.0,30.15,ENE,69,2.0,2.0,45,-99.99,,,-99.99,,2013-03-14 12:52:00,
2013-03-14 06:00:00,41.0,0.0,30.16,East,81,1.0,1.0,44,-99.99,,,-99.99,,2013-03-14 13:00:00,
2013-03-14 06:08:00,42.0,0.0,30.16,East,101,2.0,2.0,41,-99.99,,,-99.99,,2013-03-14 13:08:00,
2013-03-14 06:16:00,41.0,0.0,30.16,South,176,2.0,2.0,44,-99.99,,,-99.99,,2013-03-14 13:16:00,
2013-03-14 06:24:00,39.0,0.0,30.16,WSW,245,5.0,5.0,48,-99.99,,,-99.99,,2013-03-14 13:24:00,
2013-03-14 06:32:00,40.0,0.0,30.16,WSW,247,7.0,7.0,47,-99.99,,,-99.99,,2013-03-14 13:32:00,
2013-03-14 06:40:00,40.0,0.0,30.17,WSW,254,6.0,6.0,47,-99.99,,,-99.99,,2013-03-14 13:40:00,
2013-03-14 06:48:00,40.0,0.0,30.17,West,269,7.0,7.0,48,-99.99,,,-99.99,,2013-03-14 13:48:00,
2013-03-14 06:56:00,40.0,0.0,30.17,West,260,5.0,5.0,48,-99.99,,,-99.99,,2013-03-14 13:56:00,
2013-03-14 07:04:00,41.0,0.0,30.17,West,269,5.0,5.0,45,-99.99,,,-99.99,,2013-03-14 14:04:00,
2013-03-14 07:12:00,39.0,0.0,30.18,WNW,287,3.0,3.0,48,-99.99,,,-99.99,,2013-03-14 14:12:00,
2013-03-14 07:20:00,39.0,0.0,30.18,WNW,290,3.0,3.0,50,-99.99,,,-99.99,,2013-03-14 14:20:00,
2013-03-14 07:28:00,40.0,0.0,30.18,NW,309,3.0,3.0,47,-99.99,,,-99.99,,2013-03-14 14:28:00,
2013-03-14 07:36:00,40.0,0.0,30.18,NW,310,5.0,5.0,46,-99.99,,,-99.99,,2013-03-14 14:36:00,
2013-03-14 07:44:00,43.0,0.0,30.18,North,351,0.0,1.0,44,-99.99,,,-99.99,,2013-03-14 14:44:00,
2013-03-14 07:52:00,45.0,0.0,30.19,SSE,154,0.0,0.0,43,-99.99,,,-99.99,,2013-03-14 14:52:00,
2013-03-14 08:00:00,46.0,0.0,30.19,SE,141,1.0,1.0,41,-99.99,,,-99.99,,2013-03-14 15:00:00,
2013-03-14 08:08:00,46.0,0.0,30.19,SE,145,1.0,1.0,40,-99.99,,,-99.99,,2013-03-14 15:08:00,
2013-03-14 08:16:00,49.0,0.0,30.19,SSE,168,0.0,0.0,38,-99.99,,,-99.99,,2013-03-14 15:16:00,
2013-03-14 08:24:00,50.0,0.0,30.19,West,272,0.0,0.0,36,-99.99,,,-99.99,,2013-03-14 15:24:00,
2013-03-14 08:32:00,53.0,0.0,30.20,North,351,0.0,0.0,33,-99.99,,,-99.99,,2013-03-14 15:32:00,
2013-03-14 08:40:00,56.0,0.0,30.20,North,351,0.0,0.0,32,-99.99,,,-99.99,,2013-03-14 15:40:00,
2013-03-14 08:48:00,56.0,0.0,30.20,ESE,102,2.0,2.0,31,-99.99,,,-99.99,,2013-03-14 15:48:00,
2013-03-14 08:56:00,55.0,0.0,30.20,East,101,2.0,2.0,34,-99.99,,,-99.99,,2013-03-14 15:56:00,
2013-03-14 09:04:00,58.0,0.0,30.20,NE,38,0.0,1.0,33,-99.99,,,-99.99,,2013-03-14 16:04:00,
2013-03-14 09:12:00,60.0,0.0,30.20,NNE,13,0.0,1.0,28,-99.99,,,-99.99,,2013-03-14 16:12:00,
2013-03-14 09:20:00,62.0,0.0,30.20,NE,35,2.0,2.0,26,-99.99,,,-99.99,,2013-03-14 16:20:00,
2013-03-14 09:28:00,60.0,0.0,30.20,ENE,58,1.0,1.0,29,-99.99,,,-99.99,,2013-03-14 16:28:00,
2013-03-14 09:36:00,60.0,0.0,30.20,ESE,116,1.0,1.0,29,-99.99,,,-99.99,,2013-03-14 16:36:00,
2013-03-14 09:44:00,62.0,0.0,30.20,NE,48,0.0,0.0,26,-99.99,,,-99.99,,2013-03-14 16:44:00,
2013-03-14 09:52:00,63.0,0.0,30.20,East,98,1.0,1.0,27,-99.99,,,-99.99,,2013-03-14 16:52:00,
2013-03-14 10:00:00,63.0,0.0,30.19,East,94,2.0,2.0,26,-99.99,,,-99.99,,2013-03-14 17:00:00,
2013-03-14 10:08:00,64.0,0.0,30.19,SSE,165,3.0,3.0,26,-99.99,,,-99.99,,2013-03-14 17:08:00,
2013-03-14 10:16:00,65.0,0.0,30.19,ESE,116,2.0,2.0,28,-99.99,,,-99.99,,2013-03-14 17:16:00,
2013-03-14 10:24:00,66.0,0.0,30.19,SE,142,2.0,3.0,23,-99.99,,,-99.99,,2013-03-14 17:24:00,
2013-03-14 10:32:00,67.0,0.0,30.19,ENE,71,0.0,2.0,22,-99.99,,,-99.99,,2013-03-14 17:32:00,
2013-03-14 10:40:00,72.0,0.0,30.19,SE,143,1.0,3.0,20,-99.99,,,-99.99,,2013-03-14 17:40:00,
2013-03-14 10:48:00,71.0,0.0,30.18,SE,146,2.0,2.0,20,-99.99,,,-99.99,,2013-03-14 17:48:00,
2013-03-14 10:56:00,72.0,0.0,30.18,SSE,154,1.0,2.0,19,-99.99,,,-99.99,,2013-03-14 17:56:00,
2013-03-14 11:04:00,73.0,0.0,30.18,East,91,0.0,0.0,20,-99.99,,,-99.99,,2013-03-14 18:04:00,
2013-03-14 11:12:00,76.0,0.0,30.18,NW,310,0.0,0.0,19,-99.99,,,-99.99,,2013-03-14 18:12:00,
2013-03-14 11:20:00,76.0,0.0,30.18,North,8,2.0,2.0,19,-99.99,,,-99.99,,2013-03-14 18:20:00,
2013-03-14 11:28:00,76.0,0.0,30.17,ENE,63,3.0,3.0,19,-99.99,,,-99.99,,2013-03-14 18:28:00,
2013-03-14 11:36:00,76.0,0.0,30.17,ENE,72,1.0,3.0,17,-99.99,,,-99.99,,2013-03-14 18:36:00,
2013-03-14 11:44:00,76.0,0.0,30.17,ENE,77,5.0,5.0,21,-99.99,,,-99.99,,2013-03-14 18:44:00,
2013-03-14 11:52:00,77.0,0.0,30.17,SSE,153,3.0,3.0,17,-99.99,,,-99.99,,2013-03-14 18:52:00,
2013-03-14 12:00:00,78.0,0.0,30.17,SE,138,3.0,5.0,17,-99.99,,,-99.99,,2013-03-14 19:00:00,
2013-03-14 12:08:00,79.0,0.0,30.16,SE,136,3.0,3.0,16,-99.99,,,-99.99,,2013-03-14 19:08:00,
2013-03-14 12:16:00,79.0,0.0,30.16,ESE,115,3.0,3.0,18,-99.99,,,-99.99,,2013-03-14 19:16:00,
2013-03-14 12:24:00,80.0,0.0,30.15,SE,131,5.0,5.0,17,-99.99,,,-99.99,,2013-03-14 19:24:00,
2013-03-14 12:32:00,80.0,0.0,30.15,East,90,3.0,5.0,15,-99.99,,,-99.99,,2013-03-14 19:32:00,
2013-03-14 12:40:00,81.0,0.0,30.14,East,99,3.0,5.0,19,-99.99,,,-99.99,,2013-03-14 19:40:00,
2013-03-14 12:48:00,81.0,0.0,30.14,South,182,3.0,3.0,15,-99.99,,,-99.99,,2013-03-14 19:48:00,
2013-03-14 12:56:00,83.0,0.0,30.13,South,171,3.0,3.0,14,-99.99,,,-99.99,,2013-03-14 19:56:00,
2013-03-14 13:04:00,84.0,0.0,30.13,SSE,156,6.0,6.0,14,-99.99,,,-99.99,,2013-03-14 20:04:00,
2013-03-14 13:12:00,84.0,0.0,30.12,South,179,1.0,3.0,14,-99.99,,,-99.99,,2013-03-14 20:12:00,
2013-03-14 13:20:00,84.0,0.0,30.12,SSE,150,6.0,6.0,14,-99.99,,,-99.99,,2013-03-14 20:20:00,
2013-03-14 13:28:00,84.0,0.0,30.12,North,352,1.0,1.0,16,-99.99,,,-99.99,,2013-03-14 20:28:00,
2013-03-14 13:36:00,86.0,0.0,30.11,ESE,121,5.0,5.0,14,-99.99,,,-99.99,,2013-03-14 20:36:00,
2013-03-14 13:44:00,84.0,0.0,30.11,ESE,123,5.0,5.0,18,-99.99,,,-99.99,,2013-03-14 20:44:00,
2013-03-14 13:52:00,84.0,0.0,30.10,ENE,60,2.0,3.0,16,-99.99,,,-99.99,,2013-03-14 20:52:00,
2013-03-14 14:00:00,84.0,0.0,30.10,SE,143,5.0,5.0,16,-99.99,,,-99.99,,2013-03-14 21:00:00,
2013-03-14 14:08:00,86.0,0.0,30.10,SSE,157,7.0,7.0,16,-99.99,,,-99.99,,2013-03-14 21:08:00,
2013-03-14 14:16:00,85.0,0.0,30.09,East,101,2.0,3.0,16,-99.99,,,-99.99,,2013-03-14 21:16:00,
2013-03-14 14:24:00,86.0,0.0,30.09,SSW,193,8.0,8.0,14,-99.99,,,-99.99,,2013-03-14 21:24:00,
2013-03-14 14:32:00,87.0,0.0,30.08,SW,227,5.0,5.0,13,-99.99,,,-99.99,,2013-03-14 21:32:00,
2013-03-14 14:40:00,87.0,0.0,30.08,South,174,9.0,9.0,16,-99.99,,,-99.99,,2013-03-14 21:40:00,
2013-03-14 14:48:00,87.0,0.0,30.08,South,173,5.0,7.0,13,-99.99,,,-99.99,,2013-03-14 21:48:00,
2013-03-14 14:56:00,87.0,0.0,30.07,West,267,2.0,5.0,15,-99.99,,,-99.99,,2013-03-14 21:56:00,
2013-03-14 15:04:00,87.0,0.0,30.07,SSW,199,9.0,9.0,13,-99.99,,,-99.99,,2013-03-14 22:04:00,
2013-03-14 15:12:00,87.0,0.0,30.06,SSE,159,10.0,10.0,17,-99.99,,,-99.99,,2013-03-14 22:12:00,
2013-03-14 15:20:00,86.0,0.0,30.06,South,174,9.0,9.0,13,-99.99,,,-99.99,,2013-03-14 22:20:00,
2013-03-14 15:28:00,86.0,0.0,30.06,SSW,198,6.0,7.0,13,-99.99,,,-99.99,,2013-03-14 22:28:00,
2013-03-14 15:36:00,87.0,0.0,30.06,SW,227,7.0,7.0,15,-99.99,,,-99.99,,2013-03-14 22:36:00,
2013-03-14 15:44:00,87.0,0.0,30.06,SSW,196,9.0,9.0,15,-99.99,,,-99.99,,2013-03-14 22:44:00,
2013-03-14 15:52:00,87.0,0.0,30.05,SSW,210,3.0,3.0,13,-99.99,,,-99.99,,2013-03-14 22:52:00,
2013-03-14 16:00:00,87.0,0.0,30.05,SSE,159,3.0,7.0,16,-99.99,,,-99.99,,2013-03-14 23:00:00,
2013-03-14 16:08:00,87.0,0.0,30.04,South,182,5.0,5.0,15,-99.99,,,-99.99,,2013-03-14 23:08:00,
2013-03-14 16:16:00,87.0,0.0,30.04,SE,136,10.0,10.0,15,-99.99,,,-99.99,,2013-03-14 23:16:00,
2013-03-14 16:24:00,87.0,0.0,30.04,SSE,152,8.0,8.0,15,-99.99,,,-99.99,,2013-03-14 23:24:00,
2013-03-14 16:32:00,87.0,0.0,30.04,SSE,149,10.0,10.0,14,-99.99,,,-99.99,,2013-03-14 23:32:00,
2013-03-14 16:40:00,88.0,0.0,30.03,South,180,8.0,10.0,15,-99.99,,,-99.99,,2013-03-14 23:40:00,
2013-03-14 16:48:00,88.0,0.0,30.03,South,172,9.0,9.0,15,-99.99,,,-99.99,,2013-03-14 23:48:00,
2013-03-14 16:56:00,88.0,0.0,30.03,SSW,204,10.0,10.0,14,-99.99,,,-99.99,,2013-03-14 23:56:00,
2013-03-14 17:04:00,88.0,0.0,30.03,SSW,203,10.0,10.0,13,-99.99,,,-99.99,,2013-03-15 00:04:00,
2013-03-14 17:12:00,87.0,0.0,30.03,SSW,212,9.0,9.0,12,-99.99,,,-99.99,,2013-03-15 00:12:00,
2013-03-14 17:20:00,87.0,0.0,30.03,SW,222,9.0,9.0,14,-99.99,,,-99.99,,2013-03-15 00:20:00,
2013-03-14 17:28:00,87.0,0.0,30.02,South,177,9.0,9.0,15,-99.99,,,-99.99,,2013-03-15 00:28:00,
2013-03-14 17:36:00,87.0,0.0,30.02,South,182,10.0,10.0,13,-99.99,,,-99.99,,2013-03-15 00:36:00,
2013-03-14 17:44:00,87.0,0.0,30.02,South,183,13.0,13.0,14,-99.99,,,-99.99,,2013-03-15 00:44:00,
2013-03-14 17:52:00,87.0,0.0,30.02,SSE,161,9.0,9.0,13,-99.99,,,-99.99,,2013-03-15 00:52:00,
2013-03-14 18:00:00,86.0,0.0,30.02,SSE,163,10.0,10.0,13,-99.99,,,-99.99,,2013-03-15 01:00:00,
2013-03-14 18:08:00,85.0,0.0,30.01,SSW,199,10.0,10.0,13,-99.99,,,-99.99,,2013-03-15 01:08:00,
2013-03-14 18:16:00,85.0,0.0,30.01,SW,232,12.0,12.0,14,-99.99,,,-99.99,,2013-03-15 01:16:00,
2013-03-14 18:24:00,84.0,0.0,30.02,SSW,206,8.0,8.0,14,-99.99,,,-99.99,,2013-03-15 01:24:00,
2013-03-14 18:32:00,83.0,0.0,30.01,SSW,197,5.0,9.0,14,-99.99,,,-99.99,,2013-03-15 01:32:00,
2013-03-14 18:40:00,82.0,0.0,30.01,South,188,7.0,7.0,15,-99.99,,,-99.99,,2013-03-15 01:40:00,
2013-03-14 18:48:00,82.0,0.0,30.01,South,181,6.0,7.0,15,-99.99,,,-99.99,,2013-03-15 01:48:00,
2013-03-14 18:56:00,81.0,0.0,30.01,SSW,206,7.0,9.0,15,-99.99,,,-99.99,,2013-03-15 01:56:00,
2013-03-14 19:04:00,81.0,0.0,30.02,SSW,211,9.0,9.0,19,-99.99,,,-99.99,,2013-03-15 02:04:00,
2013-03-14 19:12:00,80.0,0.0,30.02,SSW,200,7.0,10.0,18,-99.99,,,-99.99,,2013-03-15 02:12:00,
2013-03-14 19:20:00,79.0,0.0,30.02,SSW,199,7.0,7.0,16,-99.99,,,-99.99,,2013-03-15 02:20:00,
2013-03-14 19:28:00,78.0,0.0,30.02,SSW,194,6.0,6.0,19,-99.99,,,-99.99,,2013-03-15 02:28:00,
2013-03-14 19:36:00,77.0,0.0,30.02,South,184,6.0,6.0,19,-99.99,,,-99.99,,2013-03-15 02:36:00,
2013-03-14 19:44:00,75.0,0.0,30.02,South,180,5.0,5.0,18,-99.99,,,-99.99,,2013-03-15 02:44:00,
2013-03-14 19:52:00,73.0,0.0,30.02,South,187,5.0,5.0,19,-99.99,,,-99.99,,2013-03-15 02:52:00,
2013-03-14 20:00:00,73.0,0.0,30.02,South,181,6.0,6.0,19,-99.99,,,-99.99,,2013-03-15 03:00:00,
2013-03-14 20:08:00,72.0,0.0,30.02,South,170,7.0,7.0,22,-99.99,,,-99.99,,2013-03-15 03:08:00,
2013-03-14 20:16:00,73.0,0.0,30.02,South,187,6.0,6.0,21,-99.99,,,-99.99,,2013-03-15 03:16:00,
2013-03-14 20:24:00,73.0,0.0,30.03,South,189,6.0,6.0,21,-99.99,,,-99.99,,2013-03-15 03:24:00,
2013-03-14 20:32:00,72.0,0.0,30.03,South,180,7.0,7.0,20,-99.99,,,-99.99,,2013-03-15 03:32:00,
2013-03-14 20:40:00,71.0,0.0,30.03,SSW,212,6.0,6.0,22,-99.99,,,-99.99,,2013-03-15 03:40:00,
2013-03-14 20:48:00,71.0,0.0,30.03,SW,230,7.0,7.0,21,-99.99,,,-99.99,,2013-03-15 03:48:00,
2013-03-14 20:56:00,71.0,0.0,30.03,SW,227,7.0,7.0,23,-99.99,,,-99.99,,2013-03-15 03:56:00,
2013-03-14 21:00:00,70.0,0.0,30.03,WSW,246,6.0,6.0,24,-99.99,,,-99.99,,2013-03-15 04:00:00,
2013-03-14 21:04:00,70.0,0.0,30.03,WSW,244,6.0,6.0,25,-99.99,,,-99.99,,2013-03-15 04:04:00,
2013-03-14 21:08:00,70.0,0.0,30.04,WSW,242,6.0,6.0,25,-99.99,,,-99.99,,2013-03-15 04:08:00,
2013-03-14 21:16:00,70.0,0.0,30.04,WSW,250,6.0,6.0,24,-99.99,,,-99.99,,2013-03-15 04:16:00,
2013-03-14 21:20:00,71.0,0.0,30.04,West,266,6.0,6.0,25,-99.99,,,-99.99,,2013-03-15 04:20:00,
2013-03-14 21:28:00,72.0,0.0,30.04,West,276,7.0,7.0,21,-99.99,,,-99.99,,2013-03-15 04:28:00,
2013-03-14 21:36:00,73.0,0.0,30.04,West,260,6.0,7.0,20,-99.99,,,-99.99,,2013-03-15 04:36:00,
2013-03-14 21:44:00,68.0,0.0,30.04,ESE,112,12.0,12.0,26,-99.99,,,-99.99,,2013-03-15 04:44:00,
2013-03-14 21:52:00,68.0,0.0,30.04,ESE,116,8.0,8.0,26,-99.99,,,-99.99,,2013-03-15 04:52:00,
2013-03-14 22:00:00,66.0,0.0,30.04,SE,137,6.0,6.0,30,-99.99,,,-99.99,,2013-03-15 05:00:00,
2013-03-14 22:08:00,67.0,0.0,30.05,SSE,147,5.0,5.0,30,-99.99,,,-99.99,,2013-03-15 05:08:00,
2013-03-14 22:16:00,66.0,0.0,30.04,South,175,9.0,9.0,29,-99.99,,,-99.99,,2013-03-15 05:16:00,
2013-03-14 22:24:00,67.0,0.0,30.04,SE,124,2.0,5.0,28,-99.99,,,-99.99,,2013-03-15 05:24:00,
2013-03-14 22:32:00,66.0,0.0,30.05,SSE,155,2.0,2.0,31,-99.99,,,-99.99,,2013-03-15 05:32:00,
2013-03-14 22:40:00,68.0,0.0,30.05,SE,137,5.0,5.0,30,-99.99,,,-99.99,,2013-03-15 05:40:00,
2013-03-14 22:48:00,66.0,0.0,30.05,SSE,148,7.0,7.0,29,-99.99,,,-99.99,,2013-03-15 05:48:00,
2013-03-14 22:56:00,66.0,0.0,30.05,SSE,149,5.0,5.0,29,-99.99,,,-99.99,,2013-03-15 05:56:00,
2013-03-14 23:04:00,65.0,0.0,30.05,SSE,166,6.0,6.0,30,-99.99,,,-99.99,,2013-03-15 06:04:00,
2013-03-14 23:12:00,66.0,0.0,30.05,SSE,162,5.0,5.0,31,-99.99,,,-99.99,,2013-03-15 06:12:00,
2013-03-14 23:20:00,66.0,0.0,30.05,South,176,5.0,5.0,32,-99.99,,,-99.99,,2013-03-15 06:20:00,
2013-03-14 23:28:00,63.0,0.0,30.05,NW,308,1.0,3.0,33,-99.99,,,-99.99,,2013-03-15 06:28:00,
2013-03-14 23:36:00,60.0,0.0,30.05,North,361,5.0,5.0,37,-99.99,,,-99.99,,2013-03-15 06:36:00,
2013-03-14 23:44:00,60.0,0.0,30.05,North,354,3.0,3.0,37,-99.99,,,-99.99,,2013-03-15 06:44:00,
2013-03-14 23:52:00,60.0,0.0,30.04,North,9,5.0,5.0,36,-99.99,,,-99.99,,2013-03-15 06:52:00,